Oskaloosa, IA

3:30 PM CST on November 22, 2017 (GMT -0600)
Oskaloosa Municipal

Weather History for KOOA - March, 2014

Change the Weather History Date:

Monday, March 31, 2014

  Actual Average (KOTM) Record (KOTM)
Temperature  
Mean Temperature 52 °F -  
Max Temperature 71 °F 56 °F 83 °F (1986)
Min Temperature 32 °F 35 °F 12 °F (1923)
Degree Days  
Heating Degree Days 13    
Growing Degree Days 2 (Base 50)    
Moisture  
Dew Point 39 °F    
Average Humidity 58    
Maximum Humidity 81    
Minimum Humidity 37    
Precipitation  
Precipitation 0.02 in - - ()
Sea Level Pressure  
Sea Level Pressure 29.70 in    
Wind  
Wind Speed 18 mph (South)    
Max Wind Speed 30 mph    
Max Gust Speed 40 mph    
Visibility 10 miles    
Events Rain    
Averages and records for this station are not official NWS values.
T = Trace of Precipitation, MM = Missing Value Source: NWS Daily Summary

Daily Weather History Graph

Daily Weather History Graph

Search for Another Location

Airport or City:

Trip Planner

Search our weather history database for the weather conditions in past years. The results will help you decide how hot, cold, wet, or windy it might be!

Date:

Astronomy

Mar. 31, 2014 Rise Set
Actual Time 6:54 AM CDT 7:34 PM CDT
Civil Twilight 6:27 AM CDT 8:01 PM CDT
Nautical Twilight 5:54 AM CDT 8:34 PM CDT
Astronomical Twilight 5:20 AM CDT 9:08 PM CDT
Moon 7:17 AM CDT (3/31) 8:54 PM CDT (3/31)
Length of Visible Light 13h 34m
Length of Day
12h 39m
New Moon, 1% of the Moon is Illuminated
Mar 31
New Moon
Apr 7
First Quarter
Apr 15
Full
Apr 22
Last Quarter
Apr 29
New

Hourly Weather History & Observations

Time (CDT) Temp. Windchill Dew Point Humidity Pressure Visibility Wind Dir Wind Speed Gust Speed Precip Events Conditions
12:15 AM 49.3 °F - 33.8 °F 55% 29.86 in 10.0 mi SE 11.5 mph - N/A   Clear
12:35 AM 49.1 °F - 34.0 °F 56% 29.86 in 10.0 mi SE 11.5 mph - N/A   Clear
12:55 AM 48.6 °F - 34.2 °F 58% 29.85 in 10.0 mi SE 10.4 mph - N/A   Clear
1:15 AM 48.6 °F - 34.0 °F 57% 29.85 in 10.0 mi SE 11.5 mph - N/A   Clear
1:35 AM 49.1 °F - 33.8 °F 56% 29.85 in 10.0 mi SE 15.0 mph - N/A   Clear
1:55 AM 48.9 °F - 34.0 °F 56% 29.84 in 10.0 mi SE 12.7 mph - N/A   Clear
2:15 AM 48.4 °F - 34.3 °F 58% 29.84 in 10.0 mi SE 11.5 mph - N/A   Clear
2:35 AM 50.5 °F - 34.7 °F 55% 29.83 in 10.0 mi SSE 16.1 mph - N/A   Clear
2:55 AM 48.7 °F - 34.7 °F 58% 29.82 in 10.0 mi SE 13.8 mph - N/A   Clear
3:15 AM 48.6 °F - 34.7 °F 59% 29.82 in 10.0 mi SE 13.8 mph - N/A   Clear
3:35 AM 47.5 °F - 35.1 °F 62% 29.82 in 10.0 mi SE 11.5 mph - N/A   Clear
3:55 AM 47.5 °F - 35.2 °F 63% 29.80 in 10.0 mi SE 12.7 mph - N/A   Clear
4:15 AM 48.6 °F - 35.2 °F 60% 29.80 in 10.0 mi SE 15.0 mph - N/A   Clear
4:35 AM 47.8 °F - 35.6 °F 63% 29.79 in 10.0 mi SE 15.0 mph - N/A   Clear
4:55 AM 47.8 °F - 36.0 °F 63% 29.78 in 10.0 mi SE 13.8 mph - N/A   Clear
5:15 AM 48.2 °F - 36.1 °F 63% 29.77 in 10.0 mi SE 13.8 mph - N/A   Clear
5:35 AM 48.4 °F - 36.5 °F 64% 29.76 in 10.0 mi SE 15.0 mph 20.7 mph N/A   Clear
5:55 AM 48.7 °F - 36.9 °F 64% 29.75 in 10.0 mi SE 16.1 mph - N/A   Clear
6:15 AM 50.2 °F - 37.6 °F 62% 29.74 in 10.0 mi SSE 19.6 mph 24.2 mph N/A   Clear
6:35 AM 50.0 °F - 38.1 °F 64% 29.74 in 10.0 mi SSE 16.1 mph - N/A   Clear
6:55 AM 50.2 °F - 38.5 °F 64% 29.74 in 10.0 mi SSE 17.3 mph - N/A   Clear
7:15 AM 50.4 °F - 39.0 °F 65% 29.74 in 10.0 mi SSE 20.7 mph 24.2 mph N/A   Clear
7:35 AM 50.5 °F - 39.4 °F 66% 29.74 in 10.0 mi SSE 19.6 mph 25.3 mph N/A   Clear
7:55 AM 50.9 °F - 39.6 °F 65% 29.74 in 10.0 mi SSE 17.3 mph - N/A   Clear
8:15 AM 50.9 °F - 40.1 °F 67% 29.75 in 10.0 mi SSE 20.7 mph 24.2 mph N/A   Clear
8:35 AM 51.1 °F - 40.3 °F 67% 29.74 in 10.0 mi SSE 18.4 mph 27.6 mph N/A   Scattered Clouds
8:55 AM 51.1 °F - 40.6 °F 67% 29.73 in 10.0 mi SSE 16.1 mph - N/A Rain Light Rain
9:15 AM 50.0 °F - 41.7 °F 73% 29.74 in 10.0 mi South 12.7 mph - N/A Rain Light Rain
9:35 AM 49.6 °F - 42.4 °F 76% 29.76 in 10.0 mi South 13.8 mph - N/A Rain Light Rain
9:55 AM 49.3 °F - 43.5 °F 81% 29.72 in 7.0 mi SSE 10.4 mph - N/A Rain Light Rain
10:35 AM 52.7 °F - 45.1 °F 75% 29.69 in 10.0 mi SSE 21.9 mph 28.8 mph N/A   Overcast
10:55 AM 54.3 °F - 46.4 °F 75% 29.68 in 10.0 mi SSE 21.9 mph 31.1 mph N/A   Overcast
11:15 AM 54.7 °F - 45.5 °F 71% 29.68 in 10.0 mi SSE 24.2 mph 32.2 mph N/A   Overcast
11:35 AM 57.4 °F - 46.4 °F 67% 29.68 in 10.0 mi South 26.5 mph 31.1 mph N/A   Overcast
11:55 AM 59.2 °F - 45.5 °F 60% 29.67 in 10.0 mi South 25.3 mph 36.8 mph N/A   Scattered Clouds
12:15 PM 59.9 °F - 45.0 °F 58% 29.67 in 10.0 mi South 28.8 mph 32.2 mph N/A   Clear
12:35 PM 60.6 °F - 45.3 °F 57% 29.65 in 10.0 mi South 26.5 mph 32.2 mph N/A   Clear
12:55 PM 63.9 °F - 45.0 °F 50% 29.63 in 10.0 mi South 25.3 mph 34.5 mph N/A   Clear
1:15 PM 66.4 °F - 45.0 °F 46% 29.62 in 10.0 mi South 29.9 mph 34.5 mph N/A   Clear
1:35 PM 67.1 °F - 45.0 °F 45% 29.60 in 10.0 mi South 26.5 mph 34.5 mph N/A   Clear
1:55 PM 67.8 °F - 44.6 °F 43% 29.60 in 10.0 mi South 28.8 mph 36.8 mph N/A   Clear
2:15 PM 69.3 °F - 44.2 °F 40% 29.59 in 10.0 mi South 28.8 mph 39.1 mph N/A   Clear
2:35 PM 69.4 °F - 44.2 °F 40% 29.59 in 10.0 mi South 26.5 mph 40.3 mph N/A   Clear
2:55 PM 69.8 °F - 43.5 °F 39% 29.58 in 10.0 mi South 29.9 mph 36.8 mph N/A   Clear
3:15 PM 69.8 °F - 43.7 °F 39% 29.57 in 10.0 mi South 29.9 mph 33.4 mph N/A   Clear
3:35 PM 70.2 °F - 43.3 °F 38% 29.56 in 10.0 mi South 25.3 mph 33.4 mph N/A   Clear
3:55 PM 70.7 °F - 43.3 °F 37% 29.54 in 10.0 mi South 25.3 mph 35.7 mph N/A   Clear
4:15 PM 70.7 °F - 43.7 °F 38% 29.54 in 10.0 mi South 27.6 mph 34.5 mph N/A   Clear
4:35 PM 71.2 °F - 44.1 °F 38% 29.53 in 10.0 mi South 26.5 mph 33.4 mph N/A   Clear
4:55 PM 70.9 °F - 43.7 °F 38% 29.53 in 10.0 mi South 26.5 mph 35.7 mph N/A   Clear
5:15 PM 70.9 °F - 43.3 °F 37% 29.52 in 10.0 mi South 28.8 mph 35.7 mph N/A   Clear
5:35 PM 70.7 °F - 43.0 °F 37% 29.51 in 10.0 mi South 23.0 mph 27.6 mph N/A   Clear
5:55 PM 70.3 °F - 43.0 °F 37% 29.50 in 10.0 mi South 24.2 mph 33.4 mph N/A   Clear
6:15 PM 68.4 °F - 43.7 °F 41% 29.49 in 10.0 mi South 24.2 mph 32.2 mph N/A   Clear
6:35 PM 67.5 °F - 43.9 °F 43% 29.47 in 10.0 mi South 28.8 mph 34.5 mph N/A   Scattered Clouds
6:55 PM 61.7 °F - 46.9 °F 58% 29.57 in 10.0 mi West 25.3 mph 38.0 mph N/A Rain Rain
7:15 PM 56.1 °F - 45.0 °F 66% 29.60 in 10.0 mi West 29.9 mph 36.8 mph 0.02 in   Overcast
7:35 PM 52.5 °F - 40.8 °F 64% 29.64 in 10.0 mi West 25.3 mph 29.9 mph 0.02 in   Scattered Clouds
7:55 PM 50.2 °F - 38.3 °F 64% 29.66 in 10.0 mi West 18.4 mph 29.9 mph 0.02 in   Clear
8:15 PM 47.5 °F - 36.9 °F 67% 29.68 in 10.0 mi West 19.6 mph - N/A   Clear
8:35 PM 45.9 °F 39.1 °F 35.2 °F 66% 29.69 in 10.0 mi West 16.1 mph 24.2 mph N/A   Clear
8:55 PM 43.9 °F 36.2 °F 33.8 °F 68% 29.71 in 10.0 mi West 17.3 mph 24.2 mph N/A   Clear
9:15 PM 42.6 °F 32.8 °F 32.0 °F 66% 29.72 in 10.0 mi West 25.3 mph - N/A   Clear
9:35 PM 41.2 °F 30.7 °F 29.8 °F 64% 29.74 in 10.0 mi West 26.5 mph 34.5 mph N/A   Clear
9:55 PM 39.0 °F 31.4 °F 29.8 °F 70% 29.76 in 10.0 mi West 12.7 mph - N/A   Clear
10:15 PM 38.3 °F 27.3 °F 27.1 °F 64% 29.77 in 10.0 mi West 24.2 mph 31.1 mph N/A   Clear
10:35 PM 36.3 °F 26.8 °F 27.5 °F 70% 29.78 in 10.0 mi West 16.1 mph - N/A   Clear
10:55 PM 34.9 °F 23.0 °F 25.5 °F 69% 29.80 in 10.0 mi West 23.0 mph 33.4 mph N/A   Clear
11:15 PM 33.8 °F 21.3 °F 24.4 °F 69% 29.81 in 10.0 mi West 24.2 mph 31.1 mph N/A   Clear
11:35 PM 33.1 °F 21.9 °F 23.9 °F 69% 29.80 in 10.0 mi West 18.4 mph 26.5 mph N/A   Clear
11:55 PM 32.0 °F 20.8 °F 23.7 °F 71% 29.81 in 10.0 mi West 17.3 mph - N/A   Clear